Weather History for GMFO - April, 2013

Change the Weather History Date:

Wednesday, April 24, 2013

  Actual Average Record
Temperature  
Mean Temperature 54 °F -  
Max Temperature 62 °F 74 °F 86 °F (2008)
Min Temperature 47 °F 51 °F 41 °F (2004)
Degree Days  
Heating Degree Days 10    
Growing Degree Days 4 (Base 50)    
Moisture  
Dew Point 48 °F    
Average Humidity 77    
Maximum Humidity 100    
Minimum Humidity 44    
Precipitation  
Precipitation 0.08 in 0.05 in - ()
Sea Level Pressure  
Sea Level Pressure 30.08 in    
Wind  
Wind Speed 7 mph ()    
Max Wind Speed 18 mph    
Max Gust Speed -    
Visibility 5.7 miles    
Events Rain    
Averages and records for this station are not official NWS values.
T = Trace of Precipitation, MM = Missing Value Source: Averaged Metar Reports

Daily Weather History Graph

Daily Weather History Graph

Search for Another Location

Airport or City:

Trip Planner

Search our weather history database for the weather conditions in past years. The results will help you decide how hot, cold, wet, or windy it might be!

Date:

Astronomy

Apr. 24, 2013 Rise Set
Actual Time 5:24 AM WET 6:47 PM WET
Civil Twilight 4:58 AM WET 7:13 PM WET
Nautical Twilight 4:26 AM WET 7:45 PM WET
Astronomical Twilight 3:53 AM WET 8:18 PM WET
Moon 5:35 PM WET (4/24) 4:16 AM WET (4/24)
Length of Visible Light 14h 15m
Length of Day
13h 22m
Waxing Gibbous, 98% of the Moon is Illuminated
Apr 24
Waxing Gibbous
Apr 25
Full
May 2
Last Quarter
May 10
New
May 18
First Quarter

Hourly Weather History & Observations

Time (WET) Temp. Dew Point Humidity Pressure Visibility Wind Dir Wind Speed Gust Speed Precip Events Conditions
12:00 AM 50 °F 44 °F 75% 30.13 in 12 mi WNW 4.6 mph - -   Scattered Clouds
12:00 AM 50.0 °F 44.6 °F 82% 30.12 in 6.2 mi WNW 4.6 mph - N/A   Scattered Clouds
2:00 AM 48.2 °F 44.6 °F 87% 30.09 in 6.2 mi Calm Calm - N/A   Scattered Clouds
3:00 AM 50 °F 47 °F 86% 30.09 in 6 mi Calm Calm - -   Scattered Clouds
3:00 AM 50.0 °F 46.4 °F 87% 30.06 in 6.2 mi Calm Calm - N/A   Scattered Clouds
5:00 AM 48.2 °F 46.4 °F 93% 30.09 in - Variable 2.3 mph - N/A   Unknown
6:00 AM 50 °F 47 °F 88% 30.11 in 9 mi ENE 2.3 mph - -   Partly Cloudy
6:00 AM 51.8 °F 48.2 °F 88% 30.09 in 6.2 mi NE 4.6 mph - N/A   Scattered Clouds
7:00 AM 51.8 °F 48.2 °F 88% 30.09 in 6.2 mi ENE 8.1 mph - N/A   Mostly Cloudy
8:00 AM 57.2 °F 46.4 °F 67% 30.09 in 5.0 mi ENE 11.5 mph - N/A   Scattered Clouds
9:00 AM 60 °F 44 °F 44% 30.08 in 5 mi East 12.7 mph - -   Partly Cloudy
9:00 AM 60.8 °F 44.6 °F 55% 30.09 in 5.0 mi East 12.7 mph - N/A   Scattered Clouds
10:00 AM 62.6 °F 44.6 °F 52% 30.09 in 5.0 mi ENE 13.8 mph - N/A   Scattered Clouds
11:00 AM 60.8 °F 44.6 °F 55% 30.09 in 5.0 mi ENE 12.7 mph - N/A   Mostly Cloudy
12:00 PM 55 °F 51 °F 82% 30.10 in 5 mi North 16.1 mph - - Rain Light Rain
12:00 PM 55.4 °F 50.0 °F 82% 30.09 in 5.0 mi North 16.1 mph - N/A Rain Rain
2:00 PM 60.8 °F 48.2 °F 63% 30.09 in 6.2 mi NNE 13.8 mph - N/A   Scattered Clouds
3:00 PM 62 °F 49 °F 51% 30.05 in 6 mi North 15.0 mph - -   Mostly Cloudy
3:00 PM 62.6 °F 48.2 °F 59% 30.06 in 6.2 mi North 15.0 mph - N/A   Scattered Clouds
4:00 PM 60.8 °F 48.2 °F 63% 30.06 in 6.2 mi North 18.4 mph - N/A   Scattered Clouds
7:00 PM 53.6 °F 50.0 °F 88% 30.09 in 3.7 mi North 8.1 mph - N/A Rain Light Rain
8:00 PM 53.6 °F 51.8 °F 94% 30.09 in 3.7 mi NNE 8.1 mph - N/A Rain Light Rain
10:00 PM 53.6 °F 51.8 °F 94% 30.06 in 5.0 mi North 9.2 mph - N/A   Mostly Cloudy
10:41 PM 53.6 °F 51.8 °F 94% 30.06 in 3.1 mi North 9.2 mph - N/A Rain Light Rain
11:00 PM 53.6 °F 53.6 °F 100% 30.06 in 3.1 mi North 10.4 mph - N/A Rain Light Rain